Location: Zilina
(49.2170°N, 18.7330°E)
Time: 18:26:08
(UTC+02:00)

ISS - Pass Details

Date: 24 March 2019
Orbit: 408 x 410 km, 51.6° (Epoch: 24 April)

Event Time Altitude Azimuth Distance (km) Brightness Sun altitude
Rises 19:27:47 0° 238° (WSW) 2,329 0.6 -14.3°
Reaches altitude 10° 19:29:53 10° 235° (SW) 1,470 -0.5 -14.6°
Maximum altitude 19:33:08 61° 155° (SSE) 466 -3.8 -15.1°
Enters shadow 19:34:21 34° 87° (E) 699 -3.1 -15.3°
